When you browse on this site, cookies collect data to enhance your experience and personalize the content and advertising you see.
Visit our Privacy Policy to learn more. By continuing to use the site, you agree to this use of cookies and data.
  • In Spain
  • List of Countries
  • For 7 days
  • Water Temperature
  • Satellite Maps
  • Weather Map
  • Weather Widgets
  • user-avatar
    Login

    Hourly Weather Orange Walk

    Today, 21 November, Wednesday

    Time Temperature Precipitation Wind Pressure Humidity
    00:00 +24°C° 0 mm 2 mps 761 mmHg 99%
    01:00 +24°C° 0.1 mm 1 mps 760 mmHg 99%
    02:00 +24°C° 0.1 mm 1 mps 760 mmHg 99%
    03:00 +24°C° 0.1 mm 1 mps 760 mmHg 99%
    04:00 +24°C° 0.1 mm 2 mps 760 mmHg 99%
    05:00 +24°C° 0.1 mm 2 mps 760 mmHg 99%
    06:00 +24°C° 0.1 mm 2 mps 760 mmHg 99%
    07:00 +25°C° 0.1 mm 2 mps 761 mmHg 98%
    08:00 +26°C° 0.1 mm 2 mps 762 mmHg 97%
    09:00 +26°C° 0.1 mm 2 mps 762 mmHg 96%
    10:00 +27°C° 0.2 mm 2 mps 762 mmHg 92%
    11:00 +28°C° 0.2 mm 2 mps 761 mmHg 88%
    12:00 +29°C° 0.2 mm 2 mps 761 mmHg 84%
    13:00 +29°C° 0.4 mm 2 mps 761 mmHg 83%
    14:00 +29°C° 0.4 mm 2 mps 760 mmHg 82%
    15:00 +30°C° 0.4 mm 2 mps 759 mmHg 81%
    16:00 +28°C° 0.1 mm 2 mps 760 mmHg 86%
    17:00 +27°C° 0.1 mm 2 mps 760 mmHg 90%
    18:00 +26°C° 0.1 mm 2 mps 760 mmHg 95%
    19:00 +25°C° 0.1 mm 2 mps 760 mmHg 96%
    20:00 +25°C° 0.1 mm 2 mps 761 mmHg 97%
    21:00 +25°C° 0.1 mm 2 mps 761 mmHg 98%
    22:00 +25°C° 0.2 mm 1 mps 761 mmHg 98%
    23:00 +24°C° 0.2 mm 1 mps 761 mmHg 98%

    Tomorrow, 22 November, Thursday

    Time Temperature Precipitation Wind Pressure Humidity
    00:00 +24°C° 0.2 mm 1 mps 761 mmHg 98%
    01:00 +24°C° 0.1 mm 1 mps 761 mmHg 99%
    02:00 +24°C° 0.1 mm 1 mps 760 mmHg 99%
    03:00 +24°C° 0.1 mm 1 mps 760 mmHg 99%
    04:00 +24°C° 0.1 mm 1 mps 760 mmHg 99%
    05:00 +24°C° 0.1 mm 1 mps 760 mmHg 99%
    06:00 +24°C° 0.1 mm 1 mps 760 mmHg 99%
    07:00 +25°C° 0 mm 1 mps 761 mmHg 96%
    08:00 +26°C° 0 mm 2 mps 761 mmHg 93%
    09:00 +27°C° 0 mm 2 mps 761 mmHg 89%
    10:00 +29°C° 0.1 mm 2 mps 761 mmHg 80%
    11:00 +30°C° 0.1 mm 2 mps 761 mmHg 72%
    12:00 +32°C° 0.1 mm 2 mps 760 mmHg 63%
    13:00 +32°C° 0.2 mm 2 mps 760 mmHg 63%
    14:00 +32°C° 0.2 mm 2 mps 759 mmHg 63%
    15:00 +32°C° 0.2 mm 2 mps 758 mmHg 63%
    16:00 +30°C° 0.1 mm 2 mps 759 mmHg 72%
    17:00 +28°C° 0.1 mm 2 mps 759 mmHg 81%
    18:00 +26°C° 0.1 mm 2 mps 759 mmHg 89%
    19:00 +25°C° 0 mm 2 mps 760 mmHg 92%
    20:00 +25°C° 0 mm 2 mps 760 mmHg 94%
    21:00 +24°C° 0 mm 1 mps 761 mmHg 97%
    22:00 +24°C° 0 mm 1 mps 760 mmHg 97%
    23:00 +24°C° 0 mm 1 mps 760 mmHg 98%

    Day after tomorrow, 23 November, Friday

    Time Temperature Precipitation Wind Pressure Humidity
    00:00 +24°C° 0 mm 1 mps 760 mmHg 98%
    01:00 +24°C° 0.1 mm 1 mps 759 mmHg 99%
    02:00 +23°C° 0.1 mm 1 mps 759 mmHg 99%
    03:00 +23°C° 0.1 mm 1 mps 759 mmHg 99%
    04:00 +23°C° 0.1 mm 1 mps 759 mmHg 99%
    05:00 +23°C° 0.1 mm 1 mps 759 mmHg 99%
    06:00 +24°C° 0.1 mm 1 mps 759 mmHg 99%
    07:00 +25°C° 0 mm 1 mps 759 mmHg 94%
    08:00 +26°C° 0 mm 1 mps 760 mmHg 90%
    09:00 +27°C° 0 mm 1 mps 760 mmHg 85%
    10:00 +29°C° 0.1 mm 1 mps 760 mmHg 77%
    11:00 +30°C° 0.1 mm 1 mps 759 mmHg 70%
    12:00 +32°C° 0.1 mm 2 mps 759 mmHg 62%
    13:00 +31°C° 0.4 mm 2 mps 758 mmHg 66%
    14:00 +31°C° 0.4 mm 2 mps 757 mmHg 70%
    15:00 +30°C° 0.4 mm 2 mps 756 mmHg 74%
    16:00 +29°C° 0.1 mm 2 mps 756 mmHg 80%
    17:00 +27°C° 0.1 mm 2 mps 757 mmHg 86%
    18:00 +26°C° 0.1 mm 1 mps 757 mmHg 93%
    19:00 +25°C° 0 mm 1 mps 757 mmHg 94%
    20:00 +25°C° 0 mm 1 mps 758 mmHg 95%
    21:00 +25°C° 0 mm 1 mps 758 mmHg 96%
    22:00 +24°C° 0 mm 1 mps 758 mmHg 96%
    23:00 +24°C° 0 mm 1 mps 758 mmHg 97%

    24 November, Saturday

    Time Temperature Precipitation Wind Pressure Humidity
    00:00 +22°C° 0 mm 0 mps 758 mmHg 97%
    01:00 +22°C° 0 mm 0 mps 757 mmHg 98%
    02:00 +22°C° 0 mm 0 mps 757 mmHg 98%
    03:00 +22°C° 0 mm 0 mps 756 mmHg 98%
    04:00 +21°C° 0 mm 0 mps 757 mmHg 98%
    05:00 +21°C° 0 mm 0 mps 757 mmHg 98%
    06:00 +21°C° 0 mm 0 mps 757 mmHg 99%
    07:00 +23°C° 0 mm 0 mps 758 mmHg 91%
    08:00 +26°C° 0 mm 0 mps 758 mmHg 84%
    09:00 +28°C° 0 mm 0 mps 759 mmHg 76%
    10:00 +31°C° 0 mm 1 mps 758 mmHg 70%
    11:00 +32°C° 0 mm 1 mps 757 mmHg 64%
    12:00 +33°C° 0 mm 1 mps 757 mmHg 58%
    13:00 +34°C° 0 mm 2 mps 756 mmHg 59%
    14:00 +34°C° 0 mm 2 mps 756 mmHg 60%
    15:00 +32°C° 0 mm 2 mps 755 mmHg 62%
    16:00 +31°C° 0 mm 2 mps 755 mmHg 70%
    17:00 +29°C° 0 mm 2 mps 756 mmHg 79%
    18:00 +27°C° 0 mm 1 mps 756 mmHg 88%
    19:00 +26°C° 0 mm 1 mps 756 mmHg 90%
    20:00 +26°C° 0 mm 1 mps 757 mmHg 93%
    21:00 +25°C° 0 mm 1 mps 757 mmHg 96%
    22:00 +25°C° 0 mm 1 mps 757 mmHg 96%
    23:00 +25°C° 0 mm 1 mps 757 mmHg 97%

    25 November, Sunday

    Time Temperature Precipitation Wind Pressure Humidity
    00:00 +24°C° 0 mm 1 mps 757 mmHg 98%
    01:00 +24°C° 0 mm 1 mps 756 mmHg 98%
    02:00 +24°C° 0 mm 1 mps 756 mmHg 98%
    03:00 +24°C° 0 mm 1 mps 756 mmHg 98%
    04:00 +24°C° 0 mm 1 mps 756 mmHg 98%
    05:00 +24°C° 0 mm 1 mps 756 mmHg 99%
    06:00 +24°C° 0 mm 1 mps 757 mmHg 99%
    07:00 +26°C° 0 mm 1 mps 757 mmHg 91%
    08:00 +28°C° 0 mm 2 mps 758 mmHg 83%
    09:00 +30°C° 0 mm 2 mps 758 mmHg 75%
    10:00 +31°C° 0 mm 2 mps 758 mmHg 68%
    11:00 +32°C° 0 mm 2 mps 757 mmHg 62%
    12:00 +34°C° 0 mm 2 mps 757 mmHg 55%
    13:00 +34°C° 0 mm 2 mps 756 mmHg 56%
    14:00 +34°C° 0 mm 2 mps 756 mmHg 57%
    15:00 +34°C° 0 mm 2 mps 755 mmHg 58%
    16:00 +30°C° 0 mm 2 mps 756 mmHg 67%
    17:00 +28°C° 0 mm 2 mps 756 mmHg 77%
    18:00 +26°C° 0 mm 2 mps 757 mmHg 86%
    19:00 +26°C° 0 mm 2 mps 757 mmHg 90%
    20:00 +25°C° 0 mm 2 mps 758 mmHg 93%
    21:00 +24°C° 0 mm 1 mps 758 mmHg 97%
    22:00 +25°C° 0 mm 1 mps 758 mmHg 97%
    23:00 +25°C° 0 mm 1 mps 758 mmHg 97%

    26 November, Monday

    Time Temperature Precipitation Wind Pressure Humidity
    00:00 +25°C° 0 mm 1 mps 758 mmHg 98%
    01:00 +25°C° 0 mm 1 mps 758 mmHg 98%
    02:00 +25°C° 0 mm 1 mps 758 mmHg 98%
    03:00 +25°C° 0 mm 1 mps 758 mmHg 97%
    04:00 +25°C° 0.1 mm 1 mps 758 mmHg 98%
    05:00 +25°C° 0.1 mm 1 mps 758 mmHg 98%
    06:00 +25°C° 0.1 mm 1 mps 759 mmHg 98%
    07:00 +26°C° 0.2 mm 1 mps 759 mmHg 93%
    08:00 +28°C° 0.2 mm 2 mps 760 mmHg 87%
    09:00 +29°C° 0.2 mm 2 mps 760 mmHg 81%
    10:00 +30°C° 0.3 mm 2 mps 760 mmHg 76%
    11:00 +31°C° 0.3 mm 2 mps 759 mmHg 71%
    12:00 +32°C° 0.3 mm 2 mps 759 mmHg 66%
    13:00 +31°C° 0.7 mm 2 mps 758 mmHg 69%
    14:00 +31°C° 0.7 mm 3 mps 758 mmHg 72%
    15:00 +30°C° 0.7 mm 3 mps 757 mmHg 75%
    16:00 +29°C° 0.2 mm 2 mps 758 mmHg 80%
    17:00 +27°C° 0.2 mm 2 mps 758 mmHg 86%
    18:00 +26°C° 0.2 mm 2 mps 758 mmHg 92%
    19:00 +26°C° 0.1 mm 1 mps 759 mmHg 93%
    20:00 +25°C° 0.1 mm 1 mps 759 mmHg 95%
    21:00 +25°C° 0.1 mm 1 mps 760 mmHg 97%
    22:00 +25°C° 0.2 mm 1 mps 759 mmHg 97%
    23:00 +25°C° 0.2 mm 1 mps 759 mmHg 98%
    Show more